Weather History for North Bend, OR

Change the Weather History Date:

Sunday, April 21, 2013

  Actual Average Record
Temperature  
Mean Temperature 52 °F 50 °F  
Max Temperature 57 °F 56 °F 82 °F (1931)
Min Temperature 46 °F 44 °F 33 °F (1970)
Degree Days  
Heating Degree Days 13 15  
Month to date heating degree days 316 343  
Since 1 July heating degree days 3866 4055  
Cooling Degree Days 0 0  
Month to date cooling degree days 0 0  
Year to date cooling degree days 0 0  
Growing Degree Days 2 (Base 50)    
Moisture  
Dew Point 46 °F    
Average Humidity 83    
Maximum Humidity 93    
Minimum Humidity 67    
Precipitation  
Precipitation 0.00 in 0.15 in 1.77 in (1961)
Month to date precipitation 2.68 3.91  
Year to date precipitation 12.32 29.52  
Sea Level Pressure  
Sea Level Pressure 30.32 in    
Wind  
Wind Speed 6 mph (North)    
Max Wind Speed 10 mph    
Max Gust Speed 17 mph    
Visibility 10 miles    
Events      
T = Trace of Precipitation, MM = Missing Value Source: NWS Daily Summary

Daily Weather History Graph

Daily Weather History Graph

Search for Another Location

Airport:

Trip Planner

Search our weather history database for the weather conditions in past years. The results will help you decide how hot, cold, wet, or windy it might be!

Date:

Astronomy

Apr. 21, 2013 Rise Set
Actual Time 6:24 AM PDT 8:07 PM PDT
Civil Twilight 5:54 AM PDT 8:38 PM PDT
Nautical Twilight 5:17 AM PDT 9:15 PM PDT
Astronomical Twilight 4:37 AM PDT 9:54 PM PDT
Moon 3:52 PM PDT (4/21) 3:57 AM PDT (4/21)
Length of Visible Light 14h 44m
Length of Day
13h 43m
Waxing Gibbous, 81% of the Moon is Illuminated
Apr 21
Waxing Gibbous
Apr 25
Full
May 2
Last Quarter
May 9
New
May 17
First Quarter

Hourly Weather History & Observations

Time (PDT) Temp. Windchill Dew Point Humidity Pressure Visibility Wind Dir Wind Speed Gust Speed Precip Events Conditions
12:15 AM 48.2 °F - 44.6 °F 87% 30.34 in 10.0 mi NNE 6.9 mph - N/A   Overcast
12:35 AM 48.2 °F - 44.6 °F 87% 30.34 in 10.0 mi NNE 6.9 mph - N/A   Overcast
12:55 AM 48.2 °F - 44.6 °F 87% 30.34 in 10.0 mi NNE 5.8 mph - N/A   Overcast
1:15 AM 48.2 °F - 44.6 °F 87% 30.34 in 10.0 mi North 4.6 mph - N/A   Overcast
1:35 AM 48.2 °F - 44.6 °F 87% 30.34 in 10.0 mi ENE 4.6 mph - N/A   Overcast
1:55 AM 48.2 °F - 44.6 °F 87% 30.35 in 10.0 mi NE 3.5 mph - N/A   Overcast
2:15 AM 48.2 °F - 44.6 °F 87% 30.34 in 10.0 mi NE 5.8 mph - N/A   Overcast
2:35 AM 48.2 °F - 44.6 °F 87% 30.34 in 10.0 mi NE 4.6 mph - N/A   Overcast
2:55 AM 48.2 °F - 44.6 °F 87% 30.34 in 10.0 mi NNE 5.8 mph - N/A   Overcast
3:15 AM 48.2 °F - 44.6 °F 87% 30.33 in 10.0 mi NNE 4.6 mph - N/A   Overcast
3:35 AM 48.2 °F - 44.6 °F 87% 30.33 in 10.0 mi NNE 8.1 mph - N/A   Overcast
3:55 AM 48.2 °F - 44.6 °F 87% 30.33 in 10.0 mi NNE 9.2 mph - N/A   Overcast
4:15 AM 48.2 °F - 44.6 °F 87% 30.32 in 10.0 mi NNE 8.1 mph - N/A   Overcast
4:35 AM 48.2 °F - 42.8 °F 82% 30.33 in 10.0 mi NE 8.1 mph - N/A   Overcast
4:55 AM 48.2 °F - 42.8 °F 82% 30.33 in 10.0 mi NNE 6.9 mph - N/A   Overcast
5:15 AM 48.2 °F - 42.8 °F 82% 30.33 in 10.0 mi NNE 8.1 mph - N/A   Overcast
5:35 AM 48.2 °F - 42.8 °F 82% 30.33 in 10.0 mi NNE 6.9 mph - N/A   Overcast
5:55 AM 46.4 °F 43.5 °F 42.8 °F 87% 30.33 in 10.0 mi NE 5.8 mph - N/A   Overcast
6:15 AM 46.4 °F 42.9 °F 42.8 °F 87% 30.33 in 10.0 mi East 6.9 mph - N/A   Overcast
6:35 AM 46.4 °F 42.4 °F 42.8 °F 87% 30.32 in 10.0 mi ENE 8.1 mph - N/A   Overcast
6:55 AM 46.4 °F 45.2 °F 42.8 °F 87% 30.33 in 10.0 mi ENE 3.5 mph - N/A   Overcast
7:15 AM 46.4 °F 42.4 °F 42.8 °F 87% 30.33 in 10.0 mi ENE 8.1 mph - N/A   Overcast
7:35 AM 46.4 °F 41.9 °F 42.8 °F 87% 30.34 in 10.0 mi NE 9.2 mph - N/A   Overcast
7:55 AM 48.2 °F - 42.8 °F 82% 30.34 in 10.0 mi ENE 5.8 mph - N/A   Overcast
8:15 AM 48.2 °F - 44.6 °F 87% 30.34 in 10.0 mi East 6.9 mph - N/A   Mostly Cloudy
8:35 AM 48.2 °F - 44.6 °F 87% 30.34 in 10.0 mi East 6.9 mph - N/A   Scattered Clouds
8:55 AM 48.2 °F - 44.6 °F 87% 30.34 in 10.0 mi ESE 3.5 mph - N/A   Scattered Clouds
9:15 AM 50.0 °F - 44.6 °F 82% 30.34 in 10.0 mi East 3.5 mph - N/A   Mostly Cloudy
9:35 AM 51.8 °F - 44.6 °F 76% 30.34 in 10.0 mi ENE 3.5 mph - N/A   Scattered Clouds
9:55 AM 51.8 °F - 44.6 °F 76% 30.33 in 10.0 mi NE 3.5 mph - N/A   Mostly Cloudy
10:15 AM 51.8 °F - 44.6 °F 76% 30.33 in 5.0 mi Calm Calm - N/A   Scattered Clouds
10:35 AM 53.6 °F - 44.6 °F 72% 30.33 in 10.0 mi Calm Calm - N/A   Partly Cloudy
10:55 AM 53.6 °F - 44.6 °F 72% 30.34 in 10.0 mi Calm Calm - N/A   Mostly Cloudy
11:15 AM 53.6 °F - 44.6 °F 72% 30.33 in 10.0 mi WNW 3.5 mph - N/A   Scattered Clouds
11:35 AM 53.6 °F - 44.6 °F 72% 30.33 in 10.0 mi WNW 4.6 mph - N/A   Clear
11:55 AM 53.6 °F - 46.4 °F 77% 30.33 in 10.0 mi WNW 10.4 mph - N/A   Clear
12:15 PM 53.6 °F - 46.4 °F 77% 30.33 in 10.0 mi NNW 4.6 mph - N/A   Partly Cloudy
12:35 PM 55.4 °F - 46.4 °F 72% 30.32 in 10.0 mi NW 6.9 mph - N/A   Mostly Cloudy
12:55 PM 55.4 °F - 46.4 °F 72% 30.31 in 10.0 mi Calm Calm - N/A   Overcast
1:15 PM 55.4 °F - 48.2 °F 77% 30.31 in 10.0 mi West 8.1 mph - N/A   Mostly Cloudy
1:35 PM 57.2 °F - 48.2 °F 72% 30.30 in 10.0 mi West 8.1 mph - N/A   Mostly Cloudy
1:55 PM 57.2 °F - 46.4 °F 67% 30.30 in 10.0 mi WNW 9.2 mph - N/A   Overcast
2:15 PM 55.4 °F - 46.4 °F 72% 30.30 in 10.0 mi WNW 9.2 mph - N/A   Overcast
2:35 PM 55.4 °F - 46.4 °F 72% 30.31 in 10.0 mi WNW 10.4 mph - N/A   Overcast
2:55 PM 55.4 °F - 48.2 °F 77% 30.31 in 10.0 mi NW 8.1 mph - N/A   Overcast
3:15 PM 55.4 °F - 48.2 °F 77% 30.31 in 10.0 mi NNW 6.9 mph - N/A   Overcast
3:35 PM 53.6 °F - 46.4 °F 77% 30.31 in 10.0 mi NNW 6.9 mph - N/A   Overcast
3:55 PM 55.4 °F - 46.4 °F 72% 30.31 in 10.0 mi NNW 8.1 mph - N/A   Overcast
4:15 PM 53.6 °F - 46.4 °F 77% 30.31 in 10.0 mi NNW 10.4 mph - N/A   Overcast
4:35 PM 53.6 °F - 46.4 °F 77% 30.31 in 10.0 mi NNW 10.4 mph - N/A   Overcast
4:55 PM 53.6 °F - 48.2 °F 82% 30.31 in 10.0 mi North 8.1 mph - N/A   Overcast
5:15 PM 53.6 °F - 48.2 °F 82% 30.30 in 10.0 mi North 9.2 mph - N/A   Overcast
5:35 PM 53.6 °F - 46.4 °F 77% 30.30 in 10.0 mi North 6.9 mph - N/A   Overcast
5:55 PM 53.6 °F - 48.2 °F 82% 30.29 in 10.0 mi North 5.8 mph - N/A   Overcast
6:15 PM 53.6 °F - 48.2 °F 82% 30.29 in 10.0 mi NNW 5.8 mph - N/A   Overcast
6:35 PM 53.6 °F - 46.4 °F 77% 30.28 in 10.0 mi NNW 4.6 mph - N/A   Overcast
6:55 PM 53.6 °F - 46.4 °F 77% 30.28 in 10.0 mi North 6.9 mph - N/A   Overcast
7:15 PM 53.6 °F - 48.2 °F 82% 30.28 in 10.0 mi North 6.9 mph - N/A   Overcast
7:35 PM 51.8 °F - 48.2 °F 88% 30.28 in 10.0 mi North 8.1 mph - N/A   Overcast
7:55 PM 51.8 °F - 48.2 °F 88% 30.27 in 10.0 mi North 4.6 mph - N/A   Overcast
8:15 PM 51.8 °F - 48.2 °F 88% 30.27 in 10.0 mi NNW 5.8 mph - N/A   Overcast
8:35 PM 51.8 °F - 48.2 °F 88% 30.27 in 10.0 mi North 5.8 mph - N/A   Overcast
8:55 PM 51.8 °F - 48.2 °F 88% 30.28 in 10.0 mi NNW 8.1 mph - N/A   Overcast
9:15 PM 50.0 °F - 48.2 °F 94% 30.28 in 10.0 mi North 6.9 mph - N/A   Overcast
9:35 PM 50.0 °F - 48.2 °F 94% 30.28 in 10.0 mi North 9.2 mph - N/A   Overcast
9:55 PM 50.0 °F - 48.2 °F 94% 30.29 in 10.0 mi North 9.2 mph - N/A   Overcast
10:15 PM 50.0 °F - 48.2 °F 94% 30.29 in 10.0 mi North 6.9 mph - N/A   Overcast
10:35 PM 50.0 °F - 48.2 °F 94% 30.29 in 10.0 mi North 8.1 mph - N/A   Overcast
10:55 PM 50.0 °F - 48.2 °F 94% 30.30 in 10.0 mi NNE 5.8 mph - N/A   Overcast
11:15 PM 50.0 °F - 48.2 °F 94% 30.30 in 10.0 mi NNE 12.7 mph - N/A   Overcast
11:35 PM 50.0 °F - 48.2 °F 94% 30.30 in 10.0 mi NNE 12.7 mph 16.1 mph N/A   Overcast
11:55 PM 50.0 °F - 48.2 °F 94% 30.30 in 10.0 mi NNE 10.4 mph 17.3 mph N/A   Overcast